METAR AND TAF INFORMATION
METAR FOR SBBH
ADDS - METARS form results

(1155 UTC 19 May 2019)
Data provider http://aviationweather.gov/metar/data/
 
METAR text: SBBH 191100Z 10003KT CAVOK 19/16 Q1020
Conditions at: SBBH (BELO HORIZ/PAMPU, BR) observed 1100 UTC 19 May 2019
Temperature: 19.0°C (66°F)
Dewpoint: 16.0°C (61°F) [RH = 83%]
Pressure (altimeter): 30.12 inches Hg (1020.0 mb)
Winds: from the E (100 degrees) at 3 MPH (3 knots; 1.5 m/s)
Visibility: 6 or more miles (10+ km)
Ceiling: ceiling and visibility are OK
Clouds: unknown
Weather: no significant weather observed at this time

 AIRPORT MAP

 RUNWAY INFORMATION
Runway 13 Runway length 8333 ft Runway width 148 ft
Runway elevation 0 ft Runway displaced threshold 0 ft Runway heading 0
Runway 31 Runway length 8333 ft Runway width 148 ft
Runway elevation 0 ft Runway displaced threshold 0 ft Runway heading 0

 AIRPORT FREQUENCIES
Type APP Name BELO HORIZ Frequency 120.2 MHZ
Type ATIS Name BELO HORIZ Frequency 127.45 MHZ
Type CLD Name BELO HORIZ Frequency 121.1 MHZ
Type GND Name GND Frequency 121.6 MHZ
Type OPS Name SAO PAULO Frequency 122.5 MHZ
Type TWR Name BELO HORIZ Frequency 118 MHZ

 AIRPORT NEAR NAVIGATION AIDS
Type VOR-DME Name Belo Horizonte Frequency 117700 KHZ
Type NDB Name Belo Horizonte Frequency 520 KHZ



Powered by Virtual Airlines Manager [v2.6.2]